User: anonymous   Login
Location: Chiroubles
(46.1812°N, 4.6660°E)
Time: 06:23:58
(UTC+00:00)
Language:

Cosmos 1602 - Orbit

View from above orbital plane
View from above orbital plane
View from above satellite
View from above satellite

Ground track
Ground track

The orbit data is extracted from the following two-line orbital elements,

1 15331U 84105A   20299.83711553  .00000434  00000-0  22079-4 0  9991
2 15331  82.5404 201.5733 0015221  15.7035 344.4665 15.14014546967400
Epoch (UTC): 25 October 2020 20:05:26
Eccentricity: 0.0015221
inclination: 82.5404°
perigee height: 513 km
apogee height: 534 km
right ascension of ascending node: 201.5733°
argument of perigee: 15.7035°
revolutions per day: 15.14014546
mean anomaly at epoch: 344.4665°
orbit number at epoch: 96740

The dashed part of the orbit path shows where the satellite is in the earth's shadow,  

DLR